CZ-4 DEB, 26259

Orbit data source: Space-Track

CZ-4 DEB, 26259 is space debris in SSO originally from a launch on Thu, 14 Oct 1999 UTC launched from the Taiyaun Space Center, China (TSC). Debris objects in space refer to the collection of defunct objects orbiting the Earth. Examples of debris include non-operational satellites, rocket bodies, and fragments generated from explosions, collisions, or faulty payload assembly.

Loading next visibility...
Identifier
26259, 1999-057EV
Orbit
SSO
Country
Flag of CNCN / PRC
Related business
Manufacturer
Unknown
Mission
Spacecraft
Bus & Motor
Unknown
Mass
Unknown
Launch date (UTC)
1999-10-14 (26 years ago)
Launch vehicle
Unknown
Launch site
Taiyaun Space Center, China (TSC)
Object type
Payload
Rocket body
Debris
Shape & HBR
Unknown shape, 0.1 m
Radar Cross Section
Small (<0.1 m²)

Expand to show TLE details & history
Last TLE update: 18 hours ago

TLE from 18 hours ago
0 CZ-4 DEB
1 26259U 99057EV  26036.49048791  .00012341  00000-0  18214-2 0  9992
2 26259  98.3847 129.2468 0061207  74.2543 347.9500 14.74150652364790
Epoch: 2026-02-05T11:46Z
TLE epoch observation values (Epoch: 2026-02-05T11:46:18.155Z)
Latitude
61.02151°
Longitude
161.68042°
Altitude
616.206 km
Speed
7.579 km/s
True Right ascension
07h 35m 35s
True Declination
60° 52' 21"
Sunlit
Object was in full shadow at epoch
Visualization orbit readout
Latitude
Unknown
Longitude
Unknown
Altitude
Unknown
Speed
Unknown
Apparent Right ascension
Unknown
Apparent Declination
Unknown
Sunlit
N/A
Visualization observer readout
Local Sidereal Time
07:38:38
Azimuth
Unknown
Elevation
Unknown
Doppler factor
Unknown
Orbital elements
Apogee altitude
687.906 km
Perigee altitude
601.933 km
Semi-major axis
7,023.057 km
Eccentricity
0.00612
Inclination
98.3847°
RAAN
129.2468°
Arg. of periapsis
74.2543°
True anomaly
347.80247°
Mean anomaly
347.95°
Eccentric anomaly
347.87635°
Mean motion
3.68769 °/min
Orbital period
97.62 mins
BSTAR
0.0018214
Loading maneuver chart data...
Computing Atmospheric mass density...
Loading historical data...
Loading historical data...
Loading historical data...
Loading historical data...
Loading historical data...
Loading historical data...
Loading historical data...

Documentation

Showing up to 5 results
|